CW0566 Weather Reports


Display with metric or nautical units.
time (UTC)temp
F
wind
direction
speed
MPH
gust
MPH
rain 1hr
in
rain 24hr
in
rain mn
in
humidity
%
barometer
mb
20260504031058 45 0.0 2.0 0.00 0.00 0.00 74 1014.1
20260504030037 45 0.0 0.0 0.00 0.00 0.00 75 1014.2
20260504025018 45 0.0 1.0 0.00 0.00 0.00 74 1014.2
20260504024017 45 0.0 1.0 0.00 0.00 0.00 72 1014.1
20260504023037 45 0.0 4.0 0.00 0.00 0.00 73 1014.3
20260504022038 45 0.0 1.0 0.00 0.00 0.00 73 1014.3
20260504021016 45 0.0 2.0 0.00 0.00 0.00 72 1014.3
20260504020017 46 0.0 0.0 0.00 0.00 0.00 70 1014.2
20260504015017 47 0.0 0.0 0.00 0.00 0.00 68 1014.1
20260504014016 47 0.0 0.0 0.00 0.00 0.00 67 1014.1
20260504013017 48 0.0 0.0 0.00 0.00 0.00 65 1014.0
20260504012038 49 0.0 0.0 0.00 0.00 0.00 64 1014.0
20260504011017 50 0.0 0.0 0.00 0.00 0.00 62 1013.8
20260504010017 51 0.0 0.0 0.00 0.00 0.00 59 1013.6
20260504005017 52 0.0 1.0 0.00 0.00 0.00 56 1013.5
20260504004017 53 0.0 0.0 0.00 0.00 0.00 54 1013.4
20260504003037 54 0.0 0.0 0.00 0.00 0.00 52 1013.2
20260504002016 55 0.0 0.0 0.00 0.00 0.00 48 1013.1
20260504001016 56 0.0 1.0 0.00 0.00 0.00 47 1013.1
20260504000016 56 0.0 2.0 0.00 0.00 0.00 44 1013.0
20260503235017 57 315 2.0 7.0 0.00 0.00 0.00 43 1013.0
20260503234016 57 293 2.0 4.0 0.00 0.00 0.00 41 1013.0
20260503233017 58 315 2.0 5.0 0.00 0.00 0.00 40 1012.9
20260503232016 59 338 2.0 5.0 0.00 0.00 0.00 41 1013.0
20260503231016 59 293 3.0 11.0 0.00 0.00 0.00 38 1012.8
20260503230016 60 315 4.0 9.0 0.00 0.00 0.00 38 1012.7
20260503225037 60 293 5.0 12.0 0.00 0.00 0.00 37 1012.7
20260503224038 61 338 3.0 8.0 0.00 0.00 0.00 37 1012.8
20260503223016 61 338 3.0 6.0 0.00 0.00 0.00 37 1012.9
20260503222016 61 293 5.0 14.0 0.00 0.00 0.00 37 1012.8
20260503221016 61 315 5.0 14.0 0.00 0.00 0.00 37 1012.7
20260503220017 61 315 4.0 9.0 0.00 0.00 0.00 38 1012.7
20260503215017 61 315 6.0 12.0 0.00 0.00 0.00 36 1012.8
20260503214017 61 315 6.0 14.0 0.00 0.00 0.00 37 1012.9
20260503213016 61 293 9.0 17.0 0.00 0.00 0.00 37 1012.8
20260503212016 61 23 5.0 14.0 0.00 0.00 0.00 38 1012.8
20260503211016 61 315 4.0 9.0 0.00 0.00 0.00 38 1012.8
20260503210016 60 0 5.0 10.0 0.00 0.00 0.00 39 1012.9
20260503205016 60 293 7.0 18.0 0.00 0.00 0.00 39 1012.9
20260503204016 60 315 7.0 15.0 0.00 0.00 0.00 38 1012.8
20260503203017 60 293 6.0 12.0 0.00 0.00 0.00 40 1013.0
20260503202016 60 315 6.0 14.0 0.00 0.00 0.00 38 1013.0
20260503201016 60 293 7.0 13.0 0.00 0.00 0.00 40 1012.7
20260503200016 60 293 8.0 20.0 0.00 0.00 0.00 39 1012.8
20260503195016 60 315 7.0 12.0 0.00 0.00 0.00 39 1012.6
20260503194016 60 270 6.0 16.0 0.00 0.00 0.00 42 1012.9
20260503193056 60 293 8.0 18.0 0.00 0.00 0.00 39 1012.9
20260503192016 60 113 3.0 8.0 0.00 0.00 0.00 44 1013.1
20260503191016 60 23 5.0 11.0 0.00 0.00 0.00 41 1013.2
20260503190016 60 23 4.0 14.0 0.00 0.00 0.00 40 1013.3
20260503185017 60 23 4.0 10.0 0.00 0.00 0.00 41 1013.3
20260503184016 59 0 4.0 9.0 0.00 0.00 0.00 44 1013.3
20260503183016 58 293 8.0 16.0 0.00 0.00 0.00 43 1013.4
20260503182016 58 315 6.0 13.0 0.00 0.00 0.00 42 1013.5
20260503181016 58 315 4.0 13.0 0.00 0.00 0.00 45 1013.6
20260503180016 58 270 6.0 17.0 0.00 0.00 0.00 47 1013.6
20260503175016 58 68 4.0 9.0 0.00 0.00 0.00 45 1013.8
20260503174016 58 23 4.0 13.0 0.00 0.00 0.00 44 1013.8
20260503173016 58 23 4.0 7.0 0.00 0.00 0.00 47 1013.8
20260503172037 57 23 6.0 15.0 0.00 0.00 0.00 44 1013.9
20260503171036 57 23 4.0 10.0 0.00 0.00 0.00 44 1013.9
20260503131100 50 23 3.0 7.0 0.00 0.00 0.00 59 1014.2